Retour au catalogue

STARLINK-32124

ActifCommunicationsVLEO
NORAD 60298·PAYLOAD·🇺🇸 United States

Lancé Jul 28, 2024 depuis Cape Canaveral Space Force Station

Loading…

Prochains Passages (prochaines 24 heures)

TLE

FraisSource: CelesTrak SupGP

Époque: Sep 14, 2026, 12:56 UTC

1 60298C 24132W   26257.53937500  .00003341  00000+0  10744-3 0  2577
2 60298  53.1568 253.9349 0001172  85.2059 237.6604 15.31695751    12

Suivez STARLINK-32124 en temps réel avec AllMySat

Download on the App Store